User: anonymous   Login
Location: Passau
(48.5830°N, 13.4830°E)
Time: 16:51:57
(UTC+01:00)
Language:

QB50P2 - Orbit

View from above orbital plane
View from above orbital plane
View from above satellite
View from above satellite

Ground track
Ground track

The orbit data is extracted from the following two-line orbital elements,

1 40032U 14033Y   21331.74506679  .00000782  00000-0  88700-4 0  9998
2 40032  97.9247 259.0147 0011964   6.0240 354.1118 14.89156231403594
Epoch (UTC): 27 November 2021 17:52:53
Eccentricity: 0.0011964
inclination: 97.9247°
perigee height: 592 km
apogee height: 609 km
right ascension of ascending node: 259.0147°
argument of perigee: 6.0240°
revolutions per day: 14.89156231
mean anomaly at epoch: 354.1118°
orbit number at epoch: 40359

The dashed part of the orbit path shows where the satellite is in the earth's shadow,  

DLR